sat.trackr.live / text

‹ back to catalog

KUIPER-00357

NORAD 68866 · 2026-095C

PAYLOAD ACTIVE UNKNOWN

§ Identity

Operator
Country
US
Launch date
2026-04-28
Launch site
AFETR
Launch vehicle
Mass (kg)
RCS (m²)

External: N2YO · Heavens-Above · Gunter

§ Orbital elements

Epoch: 2026-09-20T03:42:03.381984Z

Period
97.30 min
Inclination
51.9014°
Eccentricity
0.0001162
Mean motion
14.79933732 rev/d
Perigee alt
628.7 km
Apogee alt
630.3 km
Semi-major
7,007.7 km
B*
3.2484e-4
RAAN
183.2242°
Arg perigee
67.5101°
Mean anomaly
292.5984°
Rev number
2,178

§ Raw data

KUIPER-003571 68866U 26095C   26263.15420581  .00002256  00000+0  32484-3 0  99992 68866  51.9014 183.2242 0001162  67.5101 292.5984 14.79933732 21783

JSON: /api/v1/satellites/68866 · /tle

For live sub-satellite position, see the globe view (requires WebGL).

§ Visibility from observer

Set your observer location to see the next 7 days of passes ≥ 10°. The values pass through the URL so the page stays shareable.

No JS? Fill the form by hand. The geolocation button needs JavaScript.